GFSFLT1_prec_radar_198.txt.gz
Reflectivity
-20 -20 -20 -20 -20 -20 -20 -20 -20 -13 12 4 -20 -20 1 -7 -20 -20 -20 -20 -20 -20 -20 -20 -18 -20 -20 -20 -20 -20 -20 -20
-20 -20 -20 -20 -20 -20 -20 -20 -20 11 13 4 -20 -20 -9 -13 -20 -20 -20 -20 -20 -20 -20 -20 -20 -20 -20 -20 -20 -20 -20 -20
-20 -20 -20 -20 -20 -20 -20 -20 -20 -11 20 2 -20 -20 -20 -20 -20 -20 -20 -20 -20 -20 -20 -20 -20 -20 -20 -20 -20 -20 -20 -20
-20 -20 -20 -20 -20 -20 -20 -20 -20 -20 19 25 2 0 -6 4 0 -20 -20 -20 -20 -20 -20 -20 -20 -20 -20 -20 -20 -20 -20 -20
-20 -20 -20 -20 -20 -20 -20 -20 -20 -20 -13 18 14 -2 -13 -19 -20 -20 -20 -20 -20 -20 -20 -20 -20 -20 -20 -20 -20 -20 -20 -20
-20 -20 -20 -20 -20 -20 -20 -20 -20 -20 -20 -18 16 14 13 -20 -20 -20 -20 -20 -20 -20 -20 -20 -20 -20 -20 -20 -20 -20 -20 -20
-20 -20 -20 -20 -20 -20 -20 -20 -20 -20 -20 -20 -17 17 12 12 1 -20 -20 -20 -20 -20 -20 -20 -20 -20 -20 -20 -20 -20 -20 -20
-20 -20 -20 -20 -20 -20 -20 -20 -20 -20 -20 -20 -9 -0 9 9 4 -20 -20 -20 -20 12 -8 -20 -20 -20 -15 -20 -20 -20 -20 -20
-20 -20 -20 -20 -20 -20 -20 -20 -20 -20 -20 -20 -20 -16 -3 9 3 -6 -20 -20 23 17 11 9 -20 -20 -20 -0 -20 -20 -20 -20
-20 -20 -20 -20 -20 -20 -20 -20 -20 -20 -20 -20 -12 16 17 8 12 -16 -17 -2 13 18 14 11 -4 -20 9 9 -20 -20 -20 -20
-20 -20 -20 -20 -20 -20 -20 -20 -20 -20 -7 12 18 18 13 10 0 -19 -20 -3 12 22 29 27 18 15 17 -4 -20 -20 -20 -20
-20 -20 -20 -20 -20 -20 -20 -20 -20 -20 -14 15 11 15 16 7 9 0 -10 2 19 26 21 27 21 23 26 7 -20 -20 -18 10
10 -20 -20 -20 -20 -20 -20 -20 -20 -20 -19 5 21 17 11 13 12 17 7 -13 12 -9 20 31 23 16 42 10 -15 -20 -13 21
8 5 -15 -20 -20 -20 -20 -20 -20 -20 -20 -1 11 14 10 8 9 20 11 3 -7 2 27 27 20 21 22 17 12 20 25 11
12 -9 -20 -20 -20 -20 -20 -20 -20 -20 -20 -20 -20 -20 -20 4 -0 7 10 -4 -1 18 19 20 29 32 33 33 30 33 40 33
29 14 -19 -20 -20 -20 -20 -20 -9 -20 -20 -20 -20 -20 -20 -20 -17 -17 10 10 7 5 9 16 21 20 27 21 28 33 38 33
30 38 36 26 5 -20 -20 -20 -20 -20 -20 -20 -20 -20 -8 -8 -20 -20 -20 -9 10 18 19 25 28 30 35 33 36 35 38 36
28 28 26 28 27 11 -3 -19 -20 -20 -20 -17 -17 -1 5 6 13 5 15 -6 4 9 1 18 15 15 33 37 36 37 35 30
22 16 12 17 19 15 18 13 -8 -19 -20 -18 -13 -17 -6 -13 -14 -17 -20 -20 -20 -20 -20 -6 8 22 24 32 33 34 29 18

GFSFLT1_prec_radar_201.txt.gz
Reflectivity
-20 -20 -20 -20 -20 -20 -20 -20 -20 -20 -18 7 17 7 14 -20 -20 -20 -20 -20 -20 -20 -20 -20 -20 -20 -20 -20 -20 -20 -20 -20
-20 -20 -20 -20 -20 -20 -20 -20 -20 -20 -20 10 13 5 4 8 -0 -20 -20 -20 -20 -20 -20 -20 -20 -20 -20 -20 -20 -20 -20 -20
-20 -20 -20 -20 -20 -20 -20 -20 -20 -20 -20 -20 -20 -20 18 7 3 -20 -19 -19 -20 -20 -20 -20 -20 -20 -20 -20 -20 -20 -20 -20
-20 -20 -20 -20 -20 -20 -20 -20 -20 -20 -20 -20 -20 -20 21 17 12 -7 -19 2 -20 -20 -20 -20 -20 -20 -20 -20 -20 -20 -20 -20
-20 -20 -20 -20 -20 -20 -20 -20 -20 -20 -20 -20 -20 -20 -13 -5 -20 -20 -20 -20 -14 -20 -20 -17 -20 -20 -20 -20 -20 -20 -20 -20
-20 -20 -20 -20 -20 -20 -20 -20 -20 -20 -20 -20 -20 -20 -20 -20 15 12 -18 -20 1 -20 -20 9 -20 -20 -20 -20 -20 -20 -20 -20
-15 -20 -20 -20 -20 -20 -20 -20 -20 -20 -20 -20 -20 -20 -20 -20 -4 15 7 1 6 -14 -20 -20 -20 -20 -20 -17 4 -3 -20 -20
-20 -20 -20 -20 -20 -20 -20 -20 -20 -20 -20 -20 -20 -20 -20 -20 -20 -20 -20 -18 -18 -1 -14 1 -13 -20 -9 0 -7 -12 -3 10
-20 -20 -20 -20 -20 -20 -20 -20 -20 -20 -20 -20 -20 14 -20 -20 -20 -20 -20 -20 -20 -20 -20 -2 10 14 10 9 -3 -20 -8 5
-20 -20 -20 -20 -20 -20 -20 -20 -20 -20 -20 6 -17 13 -20 -20 -20 -20 -12 -7 -3 18 2 -19 13 14 16 14 17 15 19 16
-20 -20 -20 -11 -15 5 7 -20 -20 -19 -20 -20 -20 -15 -17 -20 5 -6 6 14 -4 13 16 13 4 -1 2 -14 -10 13 15 26
-20 -20 -20 -20 -19 -20 -20 -20 -20 -20 -20 14 -4 -18 -19 4 -9 -19 -2 14 6 22 21 5 -1 9 19 18 31 35 19 28
-20 -20 -20 -13 -20 -6 8 -20 -20 -20 -20 -19 -20 -20 -17 6 20 -8 -19 -14 8 3 23 19 25 33 25 24 26 22 40 16
4 -16 18 -11 -9 27 27 29 12 -6 -20 -20 -18 -2 -15 11 11 14 3 -14 -0 10 8 8 6 22 21 26 26 37 32 31
37 28 5 7 7 29 15 28 15 -20 -20 -20 -2 4 9 21 14 16 16 15 10 11 7 -11 8 16 18 20 20 30 28 31
15 36 39 25 -6 3 16 9 10 6 -20 -20 -13 15 17 19 16 15 20 19 -0 11 16 18 19 18 18 16 28 29 25 27
4 20 37 41 35 36 31 32 29 15 -20 -20 -15 -6 -17 -8 5 -0 14 9 11 -0 14 14 6 9 24 18 24 22 3 -3
-16 19 18 27 8 16 27 40 27 15 10 -12 -12 8 16 16 7 13 -6 -13 -14 8 8 23 21 13 11 6 13 5 1 15
-20 -18 11 14 -5 -11 -20 27 35 25 15 13 4 16 26 24 24 26 20 15 3 -1 6 11 -3 -14 21 -14 -3 -13 13 21

GFSFLT1_prec_radar_207.txt.gz
Reflectivity
-20 -20 -20 -20 -20 -20 -20 -20 -20 -7 2 19 9 4 -20 -20 -20 -20 -20 -20 -20 11 -20 -20 -20 -20 -20 -20 -20 -20 -20 -20
-20 -20 -20 -20 -20 -20 -20 -20 -20 -20 11 18 7 -2 -20 -20 -20 -20 -20 -20 -20 -18 -7 -20 -20 -20 -20 -20 -20 -20 -20 -20
-20 -20 -20 -20 -20 -20 -20 -20 -20 -20 2 -5 -17 -20 -20 -20 -20 -20 -20 -20 -20 -20 -20 -20 -20 -20 -20 -20 -20 -20 -20 -20
-20 -20 -20 -20 -20 -20 -20 -20 -20 -20 -20 9 -20 -7 -0 11 -19 -20 -20 -20 -20 -20 -20 -20 -20 -20 -20 -20 -20 -20 -20 -20
-20 -20 -20 -20 -20 -20 -20 -20 -20 -20 -20 15 7 -18 -9 -16 -20 -20 -20 -20 -20 -20 -20 -16 -20 -20 -20 -20 -20 -20 -20 -20
-20 -20 -20 -20 -20 -20 -20 -20 -20 -20 -20 -20 -20 -20 -20 -20 -20 -20 -20 -20 -20 -20 -20 3 9 -15 -20 -20 -20 -19 -20 -20
-20 -20 -20 -20 -20 -20 -20 -20 -20 -20 -20 -20 -20 -20 -20 -20 -20 -20 -20 -20 -20 -20 -20 -20 -20 11 -14 -14 -18 -20 -20 -20
-20 -20 -20 -20 -20 -20 -20 -20 -20 -20 -20 -20 -20 -20 -20 -20 -20 -20 -20 -20 -20 -20 -20 -20 -20 -20 -20 -20 -20 4 -20 -20
-20 -20 -20 -20 -20 -20 -20 -20 -20 -20 -20 -20 -20 -20 -20 -20 -20 -20 -20 -20 -20 -2 -20 -20 -14 -19 -16 2 8 3 -13 -20
-20 -20 -20 -20 -20 -20 -20 -20 -20 -20 -20 -20 -20 -20 -20 -20 -20 -20 -20 -20 4 -1 19 -3 19 0 -7 1 -4 6 12 8
-20 -20 -20 -20 -20 -20 -20 -20 -20 -20 -20 -16 -13 -20 -17 -15 19 14 -20 -15 26 21 20 23 20 14 4 -12 0 -13 9 12
-20 -20 -20 -20 -20 -20 -20 -20 -20 -5 -11 4 -3 10 20 22 18 5 7 19 25 23 26 30 16 -8 -19 8 -3 1 2 16
-20 -20 -20 -20 -20 -20 -20 -20 -20 -20 -19 0 17 20 12 11 5 21 30 21 27 23 31 17 -11 1 -6 7 21 11 23 4
-20 -20 -20 -20 -20 -20 -20 -16 -10 9 -20 8 22 23 20 20 3 22 29 38 21 11 -1 -8 12 -7 6 18 20 15 24 27
9 -15 -20 -20 -20 -20 -20 -20 -19 7 3 18 26 17 24 22 3 23 26 43 13 -16 9 -10 -1 16 -2 2 6 19 15 8
15 -16 -20 -20 -20 -20 7 -20 -20 -20 -20 -2 21 22 21 16 25 20 21 32 7 6 -6 20 5 -2 7 12 18 25 19 17
-6 -4 -13 -20 -20 -17 -8 -1 -20 -20 -20 -20 -6 30 30 26 30 35 21 9 3 5 -2 7 6 20 27 21 10 11 4 -3
-12 2 -2 -1 -20 -9 3 -1 -12 -20 -20 -20 -20 14 45 30 45 37 24 26 25 31 22 18 16 -1 13 8 -3 -3 -10 -8
-20 -13 13 -6 -17 -1 21 12 4 -19 -20 -20 -20 -14 20 30 30 25 38 40 32 34 20 2 12 10 19 15 16 12 -0 -5

GFSFLT1_prec_radar_210.txt.gz
Reflectivity
-20 -20 -20 -20 -20 -20 -20 -20 -20 -20 -20 -20 -19 9 11 6 -18 -20 -20 -20 -20 -20 -20 -20 -20 -20 -20 -20 -20 -20 -20 -20
-20 -20 -20 -20 -20 -20 -20 -20 -20 11 12 -8 -18 -18 -6 0 -10 -20 -20 -20 -20 -20 -20 -20 -20 -20 -20 -20 -20 -20 -20 -20
-20 -20 -20 -20 -20 -20 -20 -20 -20 -20 19 -3 -19 -20 -20 -19 1 -20 -20 -20 -20 -20 -20 -20 -20 -20 -20 -20 -20 -20 -20 -20
-20 -20 -20 -20 -20 -20 -20 -20 -20 -20 -19 20 12 1 20 19 12 -11 -20 -20 -20 -20 -20 -20 -9 -20 -20 -20 -20 -20 -20 -20
-20 -20 -20 -20 -20 -20 -20 -20 -20 -20 -20 -19 1 11 -7 -12 -18 -18 -20 -20 -20 -20 -20 -20 -19 0 -11 -20 -20 -20 -20 -20
-20 -20 -20 -20 -20 -20 -20 -20 -20 -20 -20 -20 -20 6 -9 -20 -20 14 13 -20 -20 -20 -20 -20 -20 2 -0 -13 -20 -20 -20 -20
-20 -20 -20 -20 -20 -20 -20 -20 -20 -20 -20 -20 -20 -17 -20 3 -20 11 16 3 -20 -20 -20 -20 -20 -15 -5 -17 -20 -20 -20 -20
-20 -20 -20 -20 -20 -20 -20 -20 -20 -20 -20 -20 -20 -20 -19 -20 -20 0 20 17 -15 -20 -20 -20 -20 -20 -15 -20 -20 -15 -20 -20
-20 -20 -20 -20 -20 -20 -20 -20 -20 -20 -20 -20 -20 -20 -20 -20 -20 0 -10 7 5 -20 -20 -20 -20 -20 -20 -20 1 5 -4 -1
-20 -20 -20 -20 -20 -20 -20 -20 -20 -20 -20 -20 -20 -20 -18 -17 -20 -16 -20 6 -3 11 10 -16 -14 29 28 -10 -10 -14 -18 8
-20 -20 -20 -20 -20 -20 -20 -20 -20 -20 -20 -20 -20 -12 -20 5 12 9 10 4 4 -2 15 21 11 16 25 27 16 16 -1 12
-20 -20 -20 -20 -20 -20 -20 -20 -20 -20 -4 -4 3 -7 5 8 4 7 22 11 0 5 -12 11 24 29 29 23 38 33 26 10
-20 -20 -20 -20 -20 -20 -20 -20 -20 -20 -19 20 17 14 11 13 7 -3 5 -8 16 17 7 -17 25 30 41 31 14 13 18 -7
-20 -20 -20 -20 -20 -20 -20 -20 -16 -20 -20 -20 2 19 20 25 15 4 29 7 -0 -5 13 24 17 19 51 41 28 18 18 21
-20 -20 -20 -20 -20 -20 -20 -20 -20 -20 -20 13 -13 -20 -15 20 23 23 16 25 23 12 23 20 14 8 43 43 30 1 2 31
-20 -20 -20 -20 -20 -20 -20 -20 -20 -20 -20 -20 -7 -19 -5 -0 18 7 8 31 10 18 28 24 -1 10 33 28 15 21 26 22
-14 -20 -20 -20 -20 -20 -20 3 -20 -17 -20 -9 14 26 15 14 27 21 25 13 18 21 37 25 42 34 29 28 24 17 17 18
-20 -20 -20 -20 -20 -20 -8 3 -20 5 -20 -12 11 -4 -19 -16 21 26 22 25 24 37 46 31 41 33 21 24 23 17 21 10
-20 -20 -20 -20 -20 -20 -7 -18 -18 4 -12 -20 -20 -20 -20 -16 -20 -15 -13 18 36 35 37 42 36 34 34 35 23 12 9 9